1514347201.18,27305,9.13,72186.5,-8.49,-20.19,-24.15,0,*5E
1514347202.47,27306,9.13,72182.3,-8.47,-19.57,-23.33,0,*50
1514347203.74,27307,9.13,72182.5,-8.47,-19.37,-22.73,0,*52
1514347205.01,27308,9.13,72188.3,-8.47,-19.27,-22.67,0,*59
1514347206.25,27309,9.13,72190.8,-8.49,-18.99,-22.31,0,*51
1514347207.46,27310,9.13,72188.3,-8.49,-18.17,-21.13,0,*5C
1514347208.69,27311,9.13,72186.0,-8.47,-18.49,-21.39,0,*50
1514347209.93,27312,9.13,72188.5,-8.47,-19.51,-22.57,0,*50
1514347211.17,27313,9.13,72192.5,-8.49,-19.99,-23.49,0,*55
1514347212.43,27314,9.13,72186.5,-8.49,-20.49,-23.33,0,*58
1514347213.64,27315,9.13,72182.8,-8.49,-20.63,-22.07,0,*57
1514347214.87,27316,9.13,72184.8,-8.47,-21.43,-21.77,0,*5D
1514347216.16,27317,9.13,72186.8,-8.47,-23.33,-22.47,0,*59
1514347217.39,27318,9.13,72184.5,-8.49,-24.93,-23.49,0,*5A
1514347218.68,27319,9.13,72186.0,-8.47,-25.55,-23.49,0,*5E
1514347219.94,27320,9.13,72180.3,-8.47,-25.75,-22.87,0,*55
1514347221.18,27321,9.13,72192.5,-8.49,-25.61,-22.31,0,*52
1514347222.42,27322,9.13,72188.8,-8.49,-25.45,-21.57,0,*54
1514347223.66,27323,9.13,72184.3,-8.47,-24.97,-20.69,0,*59
1514347224.86,27324,9.13,72182.3,-8.49,-24.93,-20.29,0,*50
1514347226.11,27325,9.13,72186.0,-8.47,-25.09,-20.15,0,*52
1514347227.34,27326,9.13,72186.5,-8.49,-25.61,-20.15,0,*51
1514347228.64,27327,9.13,72180.8,-8.47,-25.81,-20.49,0,*59
1514347229.9,27328,9.13,72184.0,-8.47,-26.81,-21.43,0,*5E
1514347231.11,27329,9.13,72196.0,-8.49,-27.07,-21.73,0,*5D
1514347232.34,27330,9.13,72194.3,-8.49,-27.13,-22.21,0,*54
1514347233.58,27331,9.13,72190.0,-8.47,-27.29,-22.83,0,*5A
1514347234.81,27332,9.13,72188.8,-8.49,-27.71,-24.11,0,*57
1514347236.07,27333,9.13,72184.3,-8.47,-26.93,-24.61,0,*52
1514347237.33,27334,9.13,72184.0,-8.49,-25.75,-24.67,0,*56
1514347238.58,27335,9.13,72186.5,-8.47,-24.97,-23.99,0,*52
1514347239.82,27336,9.13,72190.0,-8.49,-24.41,-22.87,0,*5A
1514347241.1,27337,9.13,72186.3,-8.47,-23.69,-22.17,0,*51
1514347242.39,27338,9.13,72188.5,-8.47,-23.65,-21.53,0,*51
1514347243.64,27339,9.13,72184.0,-8.49,-22.53,-20.49,0,*50
1514347244.87,27340,9.13,72184.3,-8.47,-21.77,-19.75,0,*50
1514347246.14,27341,9.13,72178.8,-8.47,-21.87,-19.37,0,*58
1514347247.4,27342,9.13,72178.5,-8.47,-23.13,-20.15,0,*5E
1514347248.6,27343,9.13,72176.3,-8.49,-24.97,-21.77,0,*5F
1514347249.89,27344,9.13,72180.8,-8.47,-26.55,-24.25,0,*58
1514347251.18,27345,9.13,72186.5,-8.47,-25.97,-25.81,0,*5B
1514347252.43,27346,9.13,72186.3,-8.49,-25.45,-26.71,0,*55
1514347253.66,27347,9.13,72190.5,-8.47,-26.61,-27.93,0,*52
1514347254.91,27348,9.13,72184.5,-8.49,-28.43,-28.79,0,*56
1514347256.17,27349,9.13,72190.0,-8.47,-30.33,-29.35,0,*5E
1514347257.39,27350,9.13,72186.5,-8.49,-29.95,-28.85,0,*56
1514347258.63,27351,9.13,72180.0,-8.47,-28.31,-28.31,0,*59
1514347259.89,27352,9.13,72180.3,-8.49,-28.75,-28.63,0,*53
1514347261.1,27353,9.13,72182.5,-8.49,-29.61,-29.79,0,*5C
1514347262.35,27354,9.13,72180.0,-8.49,-30.39,-30.55,0,*58
1514347263.59,27355,9.13,72182.5,-8.49,-31.45,-31.95,0,*5E
1514347264.83,27356,9.13,72172.0,-8.49,-31.29,-31.61,0,*5C
1514347266.06,27357,9.13,72180.0,-8.49,-31.39,-32.13,0,*5A
1514347267.3,27358,9.13,72172.8,-8.49,-31.95,-33.03,0,*53
1514347268.56,27359,9.13,72168.8,-8.51,-32.75,-33.67,0,*54
1514347269.83,27360,9.13,72182.5,-8.51,-32.69,-33.49,0,*5F
1514347271.03,27361,9.13,72176.8,-8.49,-32.35,-33.37,0,*57
1514347272.27,27362,9.13,72178.3,-8.51,-31.33,-32.23,0,*5C
1514347273.5,27363,9.13,72170.3,-8.51,-31.67,-32.91,0,*55
1514347274.74,27364,9.13,72168.5,-8.51,-31.45,-32.23,0,*5B
1514347276.0,27365,9.13,72178.8,-8.51,-31.85,-32.23,0,*56
1514347277.27,27366,9.13,72184.8,-8.55,-32.07,-32.75,0,*5B
1514347278.51,27367,9.13,72182.3,-8.51,-31.45,-32.91,0,*51
1514347279.77,27368,9.13,72176.3,-8.51,-31.17,-33.09,0,*59
1514347281.0,27369,9.13,72180.8,-8.55,-31.51,-33.15,0,*53
1514347282.23,27370,9.13,72198.0,-8.55,-31.57,-33.15,0,*5D
1514347283.49,27371,9.13,72196.8,-8.51,-30.39,-32.91,0,*5C
1514347284.79,27372,9.13,72194.8,-8.51,-29.51,-32.19,0,*59
1514347286.02,27373,9.13,72194.3,-8.55,-28.21,-31.17,0,*57
1514347287.29,27374,9.13,72192.8,-8.55,-26.81,-30.95,0,*5F
1514347288.49,27375,9.13,72198.5,-8.55,-26.23,-31.33,0,*5B
1514347289.72,27376,9.13,72200.5,-8.55,-26.03,-31.57,0,*58
1514347290.93,27377,9.13,72198.3,-8.55,-25.39,-31.01,0,*50
1514347292.2,27378,9.13,72202.8,-8.55,-24.71,-29.89,0,*5B
1514347293.41,27379,9.13,72202.3,-8.55,-22.93,-27.07,0,*58
1514347294.64,27380,9.13,72206.5,-8.55,-24.51,-29.29,0,*54
1514347295.92,27381,9.13,72200.8,-8.51,-25.29,-29.73,0,*50
1514347297.19,27382,9.13,72212.5,-8.55,-26.17,-30.77,0,*55
1514347298.43,27383,9.13,72216.8,-8.55,-26.71,-31.17,0,*53
1514347299.66,27384,9.13,72212.8,-8.55,-26.71,-31.33,0,*52
1514347300.89,27385,9.13,72210.5,-8.55,-27.51,-31.91,0,*58
1514347302.12,27386,9.13,72198.0,-8.55,-27.71,-31.73,0,*55
1514347303.39,27387,9.13,72196.8,-8.51,-27.29,-30.73,0,*5C
1514347304.62,27388,9.13,72204.0,-8.59,-26.71,-29.45,0,*5A
1514347305.85,27389,9.13,72208.8,-8.59,-25.65,-28.05,0,*58
1514347307.08,27390,9.13,72200.3,-8.55,-25.09,-28.25,0,*54
1514347308.31,27391,9.13,72196.5,-8.55,-25.09,-28.59,0,*5E
1514347309.55,27392,9.13,72198.8,-8.55,-24.41,-27.07,0,*54
1514347310.79,27393,9.13,72198.5,-8.55,-24.35,-27.23,0,*50
1514347312.0,27394,9.19,72214.5,-8.59,-24.51,-28.53,0,*51
1514347313.23,27395,9.13,72206.3,-8.55,-23.65,-27.93,0,*5F
1514347314.46,27396,9.13,72202.8,-8.55,-22.41,-26.55,0,*50
1514347315.68,27397,9.13,72202.5,-8.55,-21.09,-24.87,0,*53
1514347316.89,27398,9.13,72196.5,-8.55,-19.95,-23.59,0,*56
1514347318.13,27399,9.13,72194.0,-8.55,-18.79,-21.83,0,*51
1514347319.33,27400,9.13,72192.5,-8.55,-17.69,-19.99,0,*58
1514347320.56,27401,9.13,72184.5,-8.55,-16.31,-18.17,0,*52
1514347321.77,27402,9.13,72178.8,-8.55,-15.29,-16.75,0,*51
1514347323.01,27403,9.13,72174.0,-8.55,-14.05,-15.15,0,*5A
1514347324.28,27404,9.13,72168.0,-8.51,-12.83,-13.79,0,*5D
1514347325.55,27405,9.13,72166.0,-8.51,-12.53,-13.23,0,*5E
1514347326.83,27406,9.13,72176.0,-8.51,-12.15,-13.01,0,*5F
1514347328.1,27407,9.19,72174.0,-8.51,-11.93,-12.93,0,*59
1514347329.36,27408,9.13,72180.0,-8.51,-11.85,-12.93,0,*51
1514347330.59,27409,9.13,72168.0,-8.55,-11.89,-13.07,0,*54
1514347331.87,27410,9.13,72170.5,-8.51,-12.11,-13.29,0,*56
1514347333.13,27411,9.13,72168.0,-8.51,-12.25,-13.37,0,*5F
1514347334.39,27412,9.13,72168.0,-8.51,-12.25,-13.37,0,*5C
1514347335.66,27413,9.13,72176.5,-8.51,-12.25,-13.29,0,*52
1514347336.89,27414,9.13,72184.0,-8.49,-12.07,-13.23,0,*56
1514347338.12,27415,9.13,72180.8,-8.49,-12.11,-13.47,0,*52
1514347339.34,27416,9.13,72186.8,-8.49,-12.39,-13.79,0,*56
1514347340.6,27417,9.13,72184.3,-8.47,-12.79,-14.37,0,*50
1514347341.84,27418,9.13,72188.0,-8.49,-13.47,-14.97,0,*57
1514347343.1,27419,9.13,72192.0,-8.47,-13.61,-15.11,0,*53
1514347344.4,27420,9.13,72194.3,-8.47,-13.97,-15.81,0,*59
1514347345.63,27421,9.13,72188.0,-8.49,-14.65,-16.65,0,*55
1514347346.89,27422,9.13,72188.0,-8.49,-15.21,-17.03,0,*56
1514347348.14,27423,9.13,72192.8,-8.47,-15.95,-17.79,0,*5B
1514347349.35,27424,9.13,72196.0,-8.49,-16.89,-18.83,0,*56
1514347350.61,27425,9.13,72192.5,-8.47,-17.59,-19.13,0,*5D
1514347351.89,27426,9.19,72188.8,-8.47,-17.79,-19.23,0,*5F
1514347353.12,27427,9.13,72180.3,-8.45,-17.25,-19.07,0,*53
1514347354.35,27428,9.19,72184.0,-8.49,-16.69,-18.99,0,*5F
1514347355.61,27429,9.13,72176.5,-8.47,-16.55,-18.93,0,*55
1514347356.9,27430,9.13,72172.5,-8.47,-16.65,-18.55,0,*54
1514347358.14,27431,9.13,72170.5,-8.49,-16.09,-18.07,0,*56
1514347359.37,27432,9.13,72170.0,-8.47,-15.07,-17.31,0,*5C
1514347360.64,27433,9.13,72166.0,-8.47,-14.47,-16.97,0,*55
1514347361.9,27434,9.13,72162.5,-8.47,-14.47,-17.31,0,*5F
1514347363.17,27435,9.13,72172.3,-8.47,-14.19,-17.45,0,*56
1514347364.44,27436,9.19,72182.3,-8.47,-13.51,-16.69,0,*51
1514347365.73,27437,9.13,72174.0,-8.47,-12.65,-15.21,0,*59
1514347366.98,27438,9.13,72180.8,-8.47,-11.89,-13.73,0,*56
1514347368.26,27439,9.13,72188.3,-8.47,-11.37,-12.65,0,*54
1514347369.56,27440,9.13,72186.0,-8.47,-11.07,-11.93,0,*53
1514347370.81,27441,9.13,72178.8,-8.45,-11.01,-11.63,0,*59
1514347372.05,27442,9.13,72178.3,-8.45,-10.93,-11.51,0,*51
1514347373.29,27443,9.13,72174.8,-8.45,-11.01,-11.73,0,*5A
1514347374.53,27444,9.13,72176.8,-8.45,-11.19,-12.07,0,*54
1514347375.75,27445,9.13,72184.3,-8.45,-11.45,-12.43,0,*5C
1514347376.99,27446,9.13,72180.3,-8.45,-11.33,-12.21,0,*5A
1514347378.26,27447,9.13,72174.3,-8.45,-11.07,-12.07,0,*58
1514347379.55,27448,9.13,72166.5,-8.43,-11.07,-12.07,0,*51
1514347380.78,27449,9.13,72174.8,-8.45,-11.19,-12.15,0,*5A
1514347382.03,27450,9.13,72170.3,-8.45,-11.33,-12.21,0,*5D
1514347383.31,27451,9.13,72178.3,-8.43,-11.37,-12.07,0,*5A
1514347384.59,27452,9.13,72176.8,-8.43,-11.37,-11.85,0,*50
1514347385.85,27453,9.13,72172.8,-8.45,-11.51,-11.77,0,*5A
1514347387.12,27454,9.13,72164.8,-8.45,-11.63,-11.77,0,*5C
1514347388.4,27455,9.13,72164.8,-8.43,-11.85,-11.89,0,*52
1514347389.68,27456,9.13,72170.0,-8.43,-11.77,-11.89,0,*5C
1514347390.97,27457,9.13,72170.8,-8.43,-11.73,-11.89,0,*59
1514347392.25,27458,9.13,72166.5,-8.43,-11.51,-11.89,0,*56
1514347393.51,27459,9.13,72164.5,-8.43,-11.77,-12.29,0,*5A
1514347394.76,27460,9.19,72166.5,-8.43,-12.03,-12.61,0,*5C
1514347396.04,27461,9.13,72162.0,-8.43,-12.61,-13.01,0,*5E
1514347397.26,27462,9.13,72164.8,-8.43,-12.93,-13.47,0,*52
1514347398.5,27463,9.13,72174.3,-8.45,-13.43,-13.79,0,*54
1514347399.75,27464,9.13,72180.8,-8.43,-13.79,-14.29,0,*5E
1514347400.97,27465,9.13,72170.8,-8.45,-14.33,-15.07,0,*5D
1514347402.24,27466,9.13,72180.5,-8.43,-15.21,-16.31,0,*5C
1514347403.5,27467,9.13,72176.5,-8.43,-15.63,-16.65,0,*5A
1514347404.74,27468,9.13,72170.8,-8.45,-16.03,-17.11,0,*54
1514347405.98,27469,9.13,72170.5,-8.43,-16.83,-17.83,0,*50
1514347407.21,27470,9.13,72172.3,-8.43,-16.97,-17.87,0,*59
1514347408.48,27471,9.13,72172.5,-8.43,-17.21,-18.11,0,*54
1514347409.76,27472,9.19,72176.0,-8.43,-17.55,-18.93,0,*5E
1514347411.01,27473,9.13,72172.3,-8.43,-17.83,-19.85,0,*52
1514347412.29,27474,9.13,72168.8,-8.43,-18.59,-21.57,0,*59
1514347413.54,27475,9.13,72174.3,-8.41,-19.17,-22.47,0,*53
1514347414.79,27476,9.13,72170.8,-8.43,-19.99,-23.29,0,*5D
1514347416.01,27477,9.13,72172.3,-8.45,-20.59,-24.35,0,*56
1514347417.28,27478,9.13,72166.5,-8.43,-21.03,-23.95,0,*5C
1514347418.52,27479,9.13,72172.8,-8.45,-20.63,-23.65,0,*53
1514347419.77,27480,9.13,72168.0,-8.45,-21.03,-23.43,0,*56
1514347421.03,27481,9.13,72170.0,-8.43,-20.43,-22.31,0,*50
1514347422.29,27482,9.13,72172.3,-8.43,-20.63,-22.77,0,*53
1514347423.52,27483,9.13,72178.5,-8.43,-22.03,-24.93,0,*5A
1514347424.79,27484,9.13,72170.3,-8.43,-20.15,-23.65,0,*56
1514347426.01,27485,9.13,72168.3,-8.43,-20.09,-25.87,0,*50
1514347427.26,27486,9.13,72184.3,-8.45,-21.47,-26.77,0,*52
1514347428.49,27487,9.13,72186.3,-8.45,-22.11,-26.55,0,*53
1514347429.78,27488,9.13,72172.3,-8.47,-23.49,-28.59,0,*50
1514347431.0,27489,9.13,72182.3,-8.45,-24.61,-30.33,0,*5B
1514347432.24,27490,9.13,72176.5,-8.45,-25.87,-31.85,0,*56
1514347433.49,27491,9.13,72184.3,-8.45,-26.49,-32.45,0,*59
1514347434.73,27492,9.13,72186.0,-8.45,-26.87,-33.27,0,*5D
1514347435.99,27493,9.13,72188.5,-8.47,-26.81,-33.03,0,*5E
1514347437.26,27494,9.13,72190.3,-8.47,-26.93,-33.03,0,*5A
1514347438.53,27495,9.13,72194.3,-8.47,-26.97,-32.69,0,*52
1514347439.82,27496,9.13,72188.8,-8.47,-26.93,-31.95,0,*55
1514347441.1,27497,9.13,72182.8,-8.47,-26.81,-30.83,0,*51
1514347442.35,27498,9.13,72184.0,-8.47,-26.13,-29.79,0,*58
1514347443.63,27499,9.13,72178.8,-8.47,-25.45,-28.43,0,*51
1514347444.86,27500,9.13,72182.5,-8.49,-24.93,-27.39,0,*56
1514347446.1,27501,9.13,72174.8,-8.49,-24.25,-26.45,0,*50
1514347447.36,27502,9.13,72172.3,-8.47,-23.69,-25.65,0,*53
1514347448.59,27503,9.13,72176.3,-8.49,-23.33,-25.23,0,*51
1514347449.82,27504,9.13,72172.5,-8.47,-22.67,-24.93,0,*52
1514347451.06,27505,9.13,72172.5,-8.49,-22.47,-25.23,0,*55
1514347452.27,27506,9.13,72174.5,-8.49,-22.97,-25.91,0,*52
1514347453.49,27507,9.13,72168.0,-8.49,-23.79,-27.29,0,*53
1514347454.71,27508,9.13,72172.3,-8.49,-25.09,-28.79,0,*57
1514347455.96,27509,9.13,72174.3,-8.49,-26.39,-30.17,0,*57
1514347457.19,27510,9.13,72176.8,-8.49,-27.55,-31.11,0,*53
1514347458.45,27511,9.13,72178.3,-8.47,-28.15,-31.39,0,*5D
1514347459.69,27512,9.13,72174.3,-8.49,-28.43,-31.29,0,*52
1514347460.93,27513,9.13,72174.0,-8.49,-28.31,-30.89,0,*5D
1514347462.15,27514,9.13,72178.8,-8.49,-27.77,-30.67,0,*57
1514347463.38,27515,9.13,72174.0,-8.49,-27.71,-30.51,0,*55
1514347464.61,27516,9.13,72172.3,-8.51,-27.51,-30.11,0,*59
1514347465.87,27517,9.19,72174.3,-8.51,-27.35,-29.67,0,*53
1514347467.12,27518,9.13,72174.0,-8.51,-26.87,-29.17,0,*53
1514347468.36,27519,9.19,72182.3,-8.51,-26.45,-28.85,0,*56
1514347469.65,27520,9.13,72180.3,-8.51,-26.29,-28.47,0,*58
1514347470.94,27521,9.13,72186.0,-8.51,-25.97,-28.21,0,*5F
1514347472.17,27522,9.13,72182.0,-8.51,-25.61,-27.89,0,*58
1514347473.4,27523,9.13,72182.0,-8.51,-25.35,-27.77,0,*59
1514347474.66,27524,9.13,72172.8,-8.51,-25.03,-27.51,0,*5F
1514347475.93,27525,9.13,72176.3,-8.51,-24.83,-27.67,0,*52
1514347477.17,27526,9.13,72180.8,-8.51,-24.51,-27.77,0,*5F
1514347478.44,27527,9.13,72180.0,-8.51,-24.47,-28.05,0,*53
1514347479.69,27528,9.13,72180.5,-8.51,-24.31,-28.31,0,*5A
1514347480.98,27529,9.13,72182.0,-8.51,-23.99,-28.63,0,*59
1514347482.25,27530,9.13,72194.3,-8.51,-23.69,-28.79,0,*55
1514347483.48,27531,9.13,72184.0,-8.55,-23.59,-28.75,0,*5F
1514347484.75,27532,9.13,72184.8,-8.51,-22.93,-27.99,0,*52
1514347486.01,27533,9.13,72192.8,-8.51,-22.27,-25.71,0,*58
1514347487.3,27534,9.13,72198.3,-8.51,-22.21,-24.71,0,*58
1514347488.55,27535,9.13,72198.3,-8.51,-22.11,-24.11,0,*5C
1514347489.81,27536,9.13,72196.5,-8.51,-22.41,-23.69,0,*52
1514347491.07,27537,9.13,72184.5,-8.51,-22.93,-23.49,0,*5E
1514347492.33,27538,9.13,72188.5,-8.51,-23.53,-23.39,0,*5B
1514347493.58,27539,9.13,72184.3,-8.51,-24.47,-23.75,0,*50
1514347494.83,27540,9.13,72182.0,-8.51,-25.29,-24.05,0,*57
1514347496.12,27541,9.13,72196.0,-8.51,-26.17,-25.03,0,*5F
1514347497.39,27542,9.13,72188.8,-8.51,-27.13,-25.71,0,*5C
1514347498.62,27543,9.13,72190.5,-8.51,-28.15,-26.65,0,*52
1514347499.88,27544,9.13,72190.5,-8.51,-29.39,-27.77,0,*58
1514347501.11,27545,9.19,72190.5,-8.55,-30.77,-28.97,0,*5E
1514347502.35,27546,9.13,72196.3,-8.55,-31.57,-29.61,0,*56
1514347503.58,27547,9.13,72194.3,-8.55,-31.73,-30.27,0,*5B
1514347504.84,27548,9.13,72190.5,-8.51,-32.23,-31.11,0,*52
1514347506.1,27549,9.19,72196.8,-8.51,-32.57,-31.95,0,*5C
1514347507.37,27550,9.13,72190.8,-8.51,-32.57,-32.85,0,*56
1514347508.64,27551,9.19,72198.5,-8.51,-32.75,-33.37,0,*5F
1514347509.84,27552,9.13,72192.0,-8.55,-32.91,-33.83,0,*5D
1514347511.12,27553,9.13,72198.8,-8.51,-32.85,-33.77,0,*56
1514347512.38,27554,9.13,72198.3,-8.55,-32.97,-33.73,0,*52
1514347513.61,27555,9.13,72202.0,-8.55,-32.91,-33.49,0,*5C
1514347514.86,27556,9.13,72196.5,-8.59,-32.63,-32.79,0,*5C
1514347516.09,27557,9.19,72202.3,-8.55,-32.45,-32.01,0,*5A
1514347517.32,27558,9.13,72196.0,-8.59,-31.67,-31.23,0,*59
1514347518.53,27559,9.13,72194.0,-8.59,-31.33,-31.33,0,*58
1514347519.76,27560,9.13,72196.5,-8.59,-31.23,-31.33,0,*53
1514347520.96,27561,9.13,72188.3,-8.59,-31.67,-31.17,0,*54
1514347522.25,27562,9.13,72188.8,-8.61,-31.73,-32.07,0,*5B
1514347523.51,27563,9.19,72190.3,-8.59,-31.91,-32.79,0,*54
1514347524.71,27564,9.13,72188.0,-8.59,-32.39,-33.15,0,*59
1514347525.98,27565,9.13,72188.0,-8.61,-32.69,-33.31,0,*50
1514347527.22,27566,9.13,72186.0,-8.59,-32.57,-32.75,0,*54
1514347528.45,27567,9.13,72182.5,-8.59,-32.23,-32.07,0,*53
1514347529.65,27568,9.13,72180.0,-8.59,-31.67,-31.17,0,*5D
1514347530.89,27569,9.13,72186.3,-8.61,-31.29,-31.05,0,*5E
1514347532.18,27570,9.13,72176.3,-8.61,-31.61,-31.73,0,*5B
1514347533.43,27571,9.13,72184.5,-8.61,-32.35,-32.97,0,*51
1514347534.69,27572,9.13,72176.3,-8.61,-31.91,-33.55,0,*50
1514347535.92,27573,9.13,72182.5,-8.59,-31.57,-33.67,0,*51
1514347537.19,27574,9.13,72190.0,-8.61,-31.61,-34.07,0,*59
1514347538.48,27575,9.13,72184.3,-8.61,-31.73,-33.77,0,*5B
1514347539.72,27576,9.19,72184.5,-8.61,-31.45,-33.21,0,*5E
1514347541.0,27577,9.13,72188.5,-8.61,-30.39,-32.79,0,*59
1514347542.26,27578,9.13,72182.0,-8.63,-30.89,-33.31,0,*52
1514347543.52,27579,9.19,72184.8,-8.61,-30.73,-33.55,0,*56
1514347544.78,27580,9.19,72178.3,-8.63,-30.89,-33.77,0,*57
1514347546.01,27581,9.13,72176.0,-8.63,-30.73,-33.03,0,*50
1514347547.22,27582,9.13,72174.0,-8.63,-30.11,-31.45,0,*57
1514347548.45,27583,9.13,72170.3,-8.63,-28.47,-29.45,0,*55
1514347549.68,27584,9.13,72174.0,-8.63,-25.81,-25.91,0,*50
1514347550.89,27585,9.13,72176.0,-8.63,-24.57,-25.09,0,*5A
1514347552.1,27586,9.13,72174.0,-8.63,-26.45,-26.61,0,*55
1514347553.33,27587,9.19,72184.3,-8.63,-29.61,-30.55,0,*5D
1514347554.55,27588,9.13,72176.3,-8.63,-31.45,-32.13,0,*5D
1514347555.79,27589,9.13,72174.5,-8.63,-31.95,-33.37,0,*56
1514347557.01,27590,9.13,72180.0,-8.63,-32.63,-34.25,0,*50
1514347558.27,27591,9.13,72168.5,-8.65,-32.85,-34.13,0,*5A
1514347559.52,27592,9.13,72178.8,-8.65,-32.91,-34.31,0,*5C
1514347560.81,27593,9.13,72178.3,-8.65,-32.85,-34.01,0,*5B
1514347562.09,27594,9.13,72178.5,-8.65,-32.85,-34.01,0,*5C
1514347563.35,27595,9.13,72174.0,-8.65,-33.09,-34.13,0,*5B
1514347564.63,27596,9.13,72178.5,-8.65,-33.09,-34.31,0,*58
1514347565.87,27597,9.13,72182.0,-8.65,-33.37,-34.47,0,*55
1514347567.13,27598,9.13,72182.5,-8.65,-33.21,-34.35,0,*58
1514347568.41,27599,9.13,72174.5,-8.65,-33.09,-34.35,0,*53
1514347569.67,27600,9.13,72184.3,-8.65,-33.03,-34.01,0,*5D
1514347570.93,27601,9.13,72180.3,-8.65,-32.75,-33.37,0,*5E
1514347572.17,27602,9.19,72180.3,-8.65,-32.13,-32.39,0,*52
1514347573.41,27603,9.13,72176.3,-8.67,-30.95,-31.33,0,*54
1514347574.66,27604,9.19,72176.8,-8.67,-29.67,-30.77,0,*57
1514347575.93,27605,9.13,72176.8,-8.67,-29.35,-30.61,0,*56
1514347577.2,27606,9.13,72178.0,-8.67,-29.51,-30.01,0,*51
1514347578.44,27607,9.13,72178.3,-8.67,-30.23,-30.61,0,*5B
1514347579.67,27608,9.13,72176.0,-8.67,-31.05,-31.85,0,*5A
1514347580.91,27609,9.13,72178.5,-8.67,-31.61,-32.35,0,*51
1514347582.12,27610,9.13,72178.3,-8.67,-31.67,-32.39,0,*53
1514347583.33,27611,9.13,72174.3,-8.67,-31.67,-32.91,0,*50
1514347584.62,27612,9.13,72168.3,-8.69,-30.77,-32.19,0,*5D
1514347585.89,27613,9.19,72166.8,-8.67,-29.89,-31.51,0,*54
1514347587.17,27614,9.13,72160.3,-8.69,-29.73,-31.51,0,*58
1514347588.42,27615,9.13,72160.5,-8.69,-29.23,-30.33,0,*59
1514347589.68,27616,9.19,72170.0,-8.69,-30.51,-31.29,0,*5D
1514347590.91,27617,9.13,72172.3,-8.69,-31.67,-32.35,0,*56
1514347592.2,27618,9.13,72160.3,-8.69,-31.51,-32.79,0,*54
1514347593.49,27619,9.13,72172.8,-8.69,-31.85,-33.09,0,*5A
1514347594.78,27620,9.19,72172.3,-8.69,-32.07,-32.97,0,*5F
1514347596.04,27621,9.13,72168.3,-8.69,-32.35,-32.79,0,*5F
1514347597.3,27622,9.13,72164.8,-8.69,-32.35,-32.63,0,*57
1514347598.5,27623,9.13,72168.5,-8.67,-31.67,-31.67,0,*5B
1514347599.77,27624,9.13,72182.3,-8.69,-31.33,-31.11,0,*52
1514347601.0,27625,9.13,72184.3,-8.69,-31.01,-31.01,0,*53
1514347602.25,27626,9.13,72182.0,-8.69,-30.61,-30.11,0,*57
1514347603.52,27627,9.13,72190.8,-8.69,-29.29,-28.37,0,*5F
1514347604.78,27628,9.13,72182.8,-8.69,-27.83,-26.03,0,*57
1514347606.04,27629,9.19,72186.3,-8.67,-27.35,-25.29,0,*5E
1514347607.25,27630,9.19,72190.8,-8.67,-27.29,-24.51,0,*55
1514347608.54,27631,9.13,72188.5,-8.69,-26.17,-23.29,0,*5E
1514347609.8,27632,9.13,72194.5,-8.69,-24.67,-22.03,0,*51
1514347611.1,27633,9.19,72190.0,-8.69,-22.77,-21.23,0,*56
1514347612.37,27634,9.13,72192.3,-8.69,-21.03,-20.73,0,*55
1514347613.61,27635,9.13,72186.3,-8.69,-20.69,-20.43,0,*5A
1514347614.87,27636,9.13,72184.8,-8.69,-20.25,-20.15,0,*52
1514347616.11,27637,9.13,72184.8,-8.67,-19.91,-19.61,0,*51
1514347617.35,27638,9.13,72180.8,-8.67,-19.75,-19.57,0,*51
1514347618.56,27639,9.13,72182.3,-8.67,-19.75,-20.05,0,*5D
1514347619.79,27640,9.13,72178.0,-8.67,-19.91,-21.03,0,*5E
1514347621.02,27641,9.13,72178.8,-8.67,-20.35,-22.07,0,*5C
1514347622.25,27642,9.13,72172.5,-8.67,-20.25,-22.77,0,*59
1514347623.46,27643,9.13,72172.0,-8.67,-20.73,-23.89,0,*5B
1514347624.69,27644,9.13,72178.8,-8.67,-21.73,-24.15,0,*5F
1514347625.95,27645,9.13,72168.0,-8.67,-22.73,-24.71,0,*5F
1514347627.18,27646,9.13,72174.5,-8.69,-23.13,-24.35,0,*55
1514347628.44,27647,9.13,72176.8,-8.69,-21.97,-22.83,0,*51
1514347629.68,27648,9.13,72172.8,-8.67,-21.47,-23.85,0,*5A
1514347630.97,27649,9.13,72176.5,-8.69,-22.47,-25.03,0,*5E
1514347632.23,27650,9.13,72176.3,-8.67,-23.69,-25.81,0,*5F
1514347633.49,27651,9.13,72180.3,-8.69,-25.03,-26.65,0,*53
1514347634.73,27652,9.13,72182.0,-8.67,-25.87,-26.81,0,*58
1514347635.96,27653,9.13,72182.5,-8.67,-27.13,-27.83,0,*55
1514347637.19,27654,9.13,72180.3,-8.67,-28.53,-28.79,0,*53
1514347638.43,27655,9.13,72178.0,-8.67,-28.85,-29.17,0,*50
1514347639.66,27656,9.13,72164.3,-8.67,-28.31,-28.63,0,*5E
1514347640.9,27657,9.19,72166.3,-8.67,-27.35,-27.67,0,*5F
1514347642.17,27658,9.13,72166.0,-8.67,-26.33,-27.35,0,*50
1514347643.38,27659,9.13,72166.3,-8.67,-25.35,-26.39,0,*59
1514347644.63,27660,9.13,72176.3,-8.67,-24.31,-25.75,0,*5D
1514347645.85,27661,9.13,72168.5,-8.71,-23.69,-24.93,0,*58
1514347647.08,27662,9.13,72166.5,-8.69,-23.39,-24.35,0,*5B
1514347648.37,27663,9.13,72178.0,-8.69,-24.21,-24.67,0,*53
1514347649.6,27664,9.13,72174.5,-8.67,-25.29,-24.31,0,*50
1514347650.84,27665,9.19,72176.5,-8.69,-26.07,-24.35,0,*54
1514347652.07,27666,9.13,72180.3,-8.69,-25.91,-23.09,0,*53
1514347653.34,27667,9.19,72172.3,-8.69,-25.09,-21.23,0,*59
1514347654.56,27668,9.19,72176.0,-8.67,-24.35,-21.39,0,*5D
1514347655.79,27669,9.13,72178.0,-8.67,-21.43,-20.35,0,*55
1514347657.05,27670,9.13,72184.8,-8.69,-18.73,-18.93,0,*5D
1514347658.26,27671,9.19,72190.3,-8.67,-18.07,-18.49,0,*56
1514347659.47,27672,9.13,72186.0,-8.67,-18.11,-18.69,0,*50
1514347660.68,27673,9.19,72190.0,-8.67,-18.41,-18.99,0,*5B
1514347661.91,27674,9.13,72184.5,-8.69,-18.69,-18.79,0,*56
1514347663.13,27675,9.19,72180.5,-8.67,-18.41,-17.83,0,*59
1514347664.37,27676,9.19,72186.5,-8.67,-16.75,-16.17,0,*5F
1514347665.61,27677,9.13,72176.3,-8.67,-15.15,-14.83,0,*54
1514347666.9,27678,9.19,72176.3,-8.65,-14.55,-14.01,0,*56
1514347668.15,27679,9.13,72176.3,-8.69,-14.69,-13.83,0,*59
1514347669.4,27680,9.19,72178.3,-8.67,-14.97,-13.83,0,*50
1514347670.65,27681,9.13,72168.3,-8.67,-15.39,-14.43,0,*5F
1514347671.86,27682,9.19,72170.3,-8.67,-16.59,-15.67,0,*5E
1514347673.13,27683,9.13,72176.5,-8.67,-17.79,-17.07,0,*58
1514347674.35,27684,9.19,72172.8,-8.65,-19.91,-19.03,0,*5F
1514347675.58,27685,9.13,72172.3,-8.63,-22.11,-21.33,0,*50
1514347676.84,27686,9.13,72166.5,-8.65,-23.65,-22.37,0,*50
1514347678.08,27687,9.19,72172.0,-8.65,-23.75,-22.67,0,*55
1514347679.35,27688,9.19,72174.5,-8.65,-24.31,-23.23,0,*5C
1514347680.64,27689,9.19,72172.3,-8.65,-23.53,-23.69,0,*50
1514347681.89,27690,9.13,72170.0,-8.65,-23.85,-24.97,0,*55
1514347683.15,27691,9.13,72166.3,-8.67,-24.67,-26.97,0,*5F
1514347684.37,27692,9.19,72170.5,-8.63,-24.77,-26.39,0,*5D
1514347685.62,27693,9.13,72166.3,-8.65,-22.67,-24.67,0,*54
1514347686.9,27694,9.19,72164.0,-8.65,-20.19,-22.77,0,*5F
1514347688.14,27695,9.19,72170.3,-8.65,-18.11,-21.77,0,*5E
1514347689.4,27696,9.13,72162.8,-8.65,-18.25,-21.27,0,*5F
1514347690.66,27697,9.13,72162.0,-8.65,-19.03,-21.97,0,*50
1514347691.91,27698,9.13,72158.8,-8.65,-19.81,-22.57,0,*5A
1514347693.16,27699,9.13,72170.5,-8.65,-20.09,-23.19,0,*5A
1514347694.4,27700,9.13,72174.3,-8.65,-21.77,-24.77,0,*5C
1514347695.67,27701,9.13,72166.0,-8.65,-24.21,-25.65,0,*59
1514347696.94,27702,9.13,72160.0,-8.65,-24.21,-25.35,0,*5F
1514347698.2,27703,9.19,72166.8,-8.65,-24.31,-24.87,0,*57
1514347699.47,27704,9.13,72172.0,-8.65,-25.49,-27.35,0,*54
1514347700.73,27705,9.13,72164.3,-8.65,-26.61,-28.63,0,*50
1514347702.01,27706,9.19,72168.3,-8.65,-25.29,-26.81,0,*5E
1514347703.27,27707,9.19,72170.3,-8.65,-23.65,-24.61,0,*5D
1514347704.53,27708,9.19,72172.5,-8.67,-22.21,-23.33,0,*51
1514347705.75,27709,9.19,72172.0,-8.67,-22.57,-24.51,0,*52
1514347706.98,27710,9.13,72170.8,-8.69,-25.09,-26.87,0,*51
1514347708.23,27711,9.19,72178.3,-8.67,-25.81,-28.79,0,*51